This site uses a module created by best online poker sites.

BSB police report ending February 13, 2018

"02/12/2018","00:11","218CR0003625","ALL OTHER","ALL OTHER","910 EVANS #D2","",""
"02/12/2018","00:33","218CR0003626","BUSINESS CHECK","BUSINESS CHECK","1370 HARRISON","",""
"02/12/2018","00:41","218CR0003627","BUSINESS CHECK","POSSESS DRUG PARAPHERNALIA","531 S MONTANA TOWN PUMP","ARREST(s) MADE",""
"02/12/2018","01:02","218CR0003628","CITIZEN AID","CITIZEN AID","400 S CLARK ST JAMES ER","",""
"02/12/2018","03:24","218CR0003629","MEDICAL - EMERGENCY","MEDICAL - EMERGENCY","212 SILVERBOW HOMES","",""
"02/12/2018","03:31","218CR0003630","FIRE - OTHER","FIRE - OTHER","1741 HARRISON HARRISON AVE LIQ","",""
"02/12/2018","05:14","218CR0003631","T/S","T/S","HARRISON AND ELIZ WARREN","",""
"02/12/2018","05:53","218CR0003632","T/S","T/S","DEWEY AND HARRISON","",""
"02/12/2018","08:19","218CR0003633","CIVIL PAPER SERVICE","CIVIL PAPER SERVICE","910 EVANS APT C5","",""
"02/12/2018","08:31","218CR0003634","TRAFFIC HAZARD","TRAFFIC HAZARD","116 W GRANITE ST","",""
"02/12/2018","08:40","218CR0003635","LED BUSINESS","LED BUSINESS","155 W GRANITE ST","",""
"02/12/2018","08:43","218CR0003636","MEDICAL - EMERGENCY","MEDICAL - EMERGENCY","100 GARDENS WAY RM 111","",""
"02/12/2018","08:58","218CR0003637","SUSPICIOUS ACTIVITY","SUSPICIOUS ACTIVITY","3825 GREEN LANE #10","",""
"02/12/2018","09:52","218CR0003638","THEFT","THEFT","3003 NEVADA","",""
"02/12/2018","09:57","218CR0003639","VANDALISM/CRIMINAL MISCHIEF","CRIMINAL MISCHIEF","1045 TELEGRAPH GULCH","",""
"02/12/2018","10:00","218CR0003675","VANDALISM/CRIMINAL MISCHIEF","VANDALISM/CRIMINAL MISCHIEF","BUTTE SILVER BOW LANDFILL","",""
"02/12/2018","10:15","218CR0003640","THEFT","THEFT, ALL OTHERS","1001 S WYOMING ST","",""
"02/12/2018","10:27","218CR0003641","ASSIST OTHER AGENCY","ASSIST OTHER AGENCY","UNKNOWN","",""
"02/12/2018","10:31","218CR0003642","MEDICAL - EMERGENCY","MEDICAL - EMERGENCY","435 S CRYSTAL","",""
"02/12/2018","10:34","218CR0003643","T/S","T/S @ CONTINENTAL AND STATE","CONTINENTAL AND STATE","",""
"02/12/2018","10:39","218CR0003644","ACCIDENT","ACCIDENT","GEORGE AND MONTANA","",""
"02/12/2018","10:39","218CR0003645","VANDALISM/CRIMINAL MISCHIEF","VANDALISM/CRIMINAL MISCHIEF","11 E PARK","",""
"02/12/2018","10:53","218CR0003647","CITIZEN AID","CITIZEN AID","2084 HARRISON","",""
"02/12/2018","10:54","218CR0003646","ALARM - MEDICAL","ALARM - MEDICAL","************","",""
"02/12/2018","10:56","218CR0003648","VANDALISM/CRIMINAL MISCHIEF","VANDALISM/CRIMINAL MISCHIEF","901 S WASHINGTON #13","",""
"02/12/2018","11:01","218CR0003649","THEFT","THEFT, ALL OTHERS","1911 THORNTON","",""
"02/12/2018","11:10","218CR0003650","T/S","T/S","GALENA AND MERCURY","",""
"02/12/2018","11:23","218CR0003651","ABANDONED VEHICLE","ABANDONED VEHICLE","MADISON ST // SHIELDS AVE","",""
"02/12/2018","11:30","218CR0003652","WELFARE CHECK","WELFARE CHECK","400 BLK S MAIN ST","",""
"02/12/2018","11:48","218CR0003653","DRUGS","POSSESSION OF DANGEROUS DRUGS","1500 FAIRMONT RD","",""
"02/12/2018","11:54","218CR0003654","MEDICAL - EMERGENCY","MEDICAL - EMERGENCY","4034 ELIZABETH WARREN #107","",""
"02/12/2018","12:12","218CR0003655","CIVIL PAPER SERVICE","CIVIL PAPER SERVICE","123 W BROADWAY","",""
"02/12/2018","12:23","218CR0003656","CIVIL PAPER SERVICE","CIVIL PAPER SERVICE","2900 S MONTANA #3","",""
"02/12/2018","12:35","218CR0003657","UNWANTED PERSON","UNWANTED PERSON","************","",""
"02/12/2018","12:38","218CR0003658","FIRE- GAS ODOR","FIRE- GAS ODOR","4655 HARRISON AVE","",""
"02/12/2018","12:50","218CR0003659","WELFARE CHECK","WELFARE CHECK","2502 PINE","",""
"02/12/2018","13:16","218CR0003660","THEFT","THEFT","","",""
"02/12/2018","13:31","218CR0003661","CITIZEN AID","CITIZEN AID","625 W PARK","",""
"02/12/2018","13:54","218CR0003663","THEFT","THEFT","3210 CARTER AVE","",""
"02/12/2018","14:01","218CR0003664","THEFT","THEFT","1612 SILVER BOW HOMES","",""
"02/12/2018","14:03","218CR0003665","DRUGS","DRUGS","************","",""
"02/12/2018","14:03","218CR0003666","ALARM - FIRE","ALARM - FIRE","2609 HARRISON","",""
"02/12/2018","14:35","218CR0003667","STOLEN VEHICLE","MOTOR VEHICLE THEFT","1325 A KAW","",""
"02/12/2018","14:57","218CR0003668","MEDICAL - ASSIST","MEDICAL - ASSIST","************","",""
"02/12/2018","15:21","218CR0003669","THEFT","THEFT","401 S WYOMING ST","",""
"02/12/2018","15:55","218CR0003670","ALL OTHER","ALL OTHER","661 S WASHINGTON","",""
"02/12/2018","15:58","218CR0003671","JUVENILE MISC","JUVENILE MISC","************","",""
"02/12/2018","15:59","218CR0003672","T/S","T/S @ THORNTON AND GRAND AVE","THORNTON AND GRAND AVE","",""
"02/12/2018","16:06","218CR0003673","DISTURBANCE-NOISE","DISTURBANCE-NOISE","711 SILVER BOW HOMES","",""
"02/12/2018","16:15","218CR0003674","HIT AND RUN","HIT AND RUN","225 N ALASKA ST","",""
"02/12/2018","16:24","218CR0003676","FRAUD","FRAUD","1105 NEVADA AVE","",""
"02/12/2018","16:34","218CR0003677","UNKNOWN PROBLEM","UNKNOWN PROBLEM","625 W PARK ST","",""
"02/12/2018","17:06","218CR0003678","HARASSMENT","HARASSMENT","1955 DEWEY BLVD","",""
"02/12/2018","17:11","218CR0003679","SUICIDE ATTEMPT/THREAT","SUICIDE ATTEMPT/THREAT","************","",""
"02/12/2018","17:33","218CR0003680","ATL","ATL","GALENA AND MONTANA","",""
"02/12/2018","17:41","218CR0003681","T/S","T/S","900 BLK OF UTAH","",""
"02/12/2018","17:46","218CR0003682","ANIMAL COMPLAINT","ANIMAL COMPLAINT","716 LEXINGTON","",""
"02/12/2018","17:53","218CR0003683","WELFARE CHECK","WELFARE CHECK","1033 HORNET ST","",""
"02/12/2018","17:56","218CR0003684","SUSPICIOUS ACTIVITY","SUSPICIOUS ACTIVITY","SECOND ST AND SHIELDS AVE","",""
"02/12/2018","18:08","218CR0003685","SUSPICIOUS ACTIVITY","SUSPICIOUS ACTIVITY","CONTINENTAL DR AND HWY 2","",""
"02/12/2018","18:19","218CR0003686","SUSPICIOUS ACTIVITY","SUSPICIOUS ACTIVITY","35 YELLOW ROSE LANE","",""
"02/12/2018","18:23","218CR0003687","MEDICAL - EMERGENCY","MEDICAL - EMERGENCY","4655 HARRISON AVE","",""
"02/12/2018","18:25","218CR0003688","ALARM - MEDICAL","ALARM - MEDICAL","************","",""
"02/12/2018","18:55","218CR0003689","ACCIDENT","ACCIDENT","WESTERN AVE AND GRANITE ST","",""
"02/12/2018","19:15","218CR0003690","SUSPICIOUS ACTIVITY","SUSPICIOUS ACTIVITY","913 A S COLORADO ST","",""
"02/12/2018","19:29","218CR0003691","SUSPICIOUS ACTIVITY","SUSPICIOUS ACTIVITY","BROADWAY STORAGE UNITS","",""
"02/12/2018","19:34","218CR0003692","THEFT","ROBBERY","1301 HARRISON AVE","",""
"02/12/2018","19:43","218CR0003693","STOLEN VEHICLE","MOTOR VEHICLE THEFT","609 SILVER BOW HOMES","",""
"02/12/2018","19:58","218CR0003694","SUSPICIOUS ACTIVITY","SUSPICIOUS ACTIVITY","1 HOLIDAY WAY/LAQUINTA INN","",""
"02/12/2018","20:17","218CR0003695","FIRE - OTHER","FIRE - OTHER","4655 HARRISON AVE","",""
"02/12/2018","20:26","218CR0003696","UNKNOWN PROBLEM","UNKNOWN PROBLEM","3131 AMHERST AVE","",""
"02/12/2018","20:39","218CR0003697","DISTURBANCE","DISTURBANCE","1528 ELM STREET","",""
"02/12/2018","20:55","218CR0003698","WELFARE CHECK","WELFARE CHECK","3540 HARRISON MONTANA CLUB","",""
"02/12/2018","21:12","218CR0003699","ALL OTHER","ALL OTHER","1347 KAW","",""
"02/12/2018","22:03","218CR0003700","DISTURBANCE","DISTURBANCE","410 S EXCELSIOR","",""
"02/12/2018","22:23","218CR0003701","INTOXICATED PERSON","INTOXICATED PERSON","2900 HARRISON BUTTE PLAZA INN","",""
"02/12/2018","22:28","218CR0003702","MEDICAL - EMERGENCY","MEDICAL - EMERGENCY","2905 HANSEN RD","",""
"02/12/2018","22:40","218CR0003703","BUSINESS CHECK","BUSINESS CHECK","2544 HARRISON","",""
"02/12/2018","23:02","218CR0003704","BUSINESS CHECK","BUSINESS CHECK","3700 HARRISON TOWN PUMP","",""
"02/12/2018","23:04","218CR0003705","CRIMINAL TRESPASS","CRIMINAL TRESPASS TO PROPERTY","3901 HARRISON AVE","ARREST(s) MADE",""
"02/12/2018","23:50","218CR0003706","ASSIST OTHER AGENCY","ASSIST OTHER AGENCY","DEWEY BLVD AND HARRISON AVE","",""
"02/12/2018","23:54","218CR0003707","BUSINESS CHECK","BUSINESS CHECK","1370 HARRISON TOWN PUMP","",""
"02/13/2018","00:22","218CR0003708","BUSINESS CHECK","BUSINESS CHECK","531 S MONTANA TOWN PUMP","",""
"02/13/2018","00:24","218CR0003709","ACCIDENT","DUI DRUGS OR ALCOHOL","4000 BLK WESTERN BLVD","ARREST(s) MADE",""
"02/13/2018","00:29","218CR0003710","DISTURBANCE","DISTURBANCE","2901 ELM","",""
"02/13/2018","00:32","218CR0003711","PROWLER","PROWLER","118 N IDAHO","",""
"02/13/2018","00:44","218CR0003712","ASSIST OTHER AGENCY","ASSIST OTHER AGENCY","I15 MM107 SB","",""
"02/13/2018","01:28","218CR0003713","INTIMIDATION","INTIMIDATION","1125 S MAIN APT 105","",""
"02/13/2018","03:21","218CR0003714","DISTURBANCE","DISTURBANCE","1225 W PLATINUM","",""
"02/13/2018","04:21","218CR0003715","SUSPICIOUS ACTIVITY","SUSPICIOUS ACTIVITY","118 N IDAHO","",""
"02/13/2018","04:32","218CR0003716","UNKNOWN PROBLEM","UNKNOWN PROBLEM","GALENA AND WASHINGTON","",""
"02/13/2018","04:45","218CR0003717","DISTURBANCE","DISTURBANCE","3220 HANNIBAL","",""
"02/13/2018","04:51","218CR0003718","DISTURBANCE","DISTURBANCE","400 S CLARK ST JAMES ER","",""
"02/13/2018","05:24","218CR0003720","THEFT","THEFT","1829 LAFAYETTE","",""
"02/13/2018","05:36","218CR0003721","T/S","T/S @ 2600 BLK HARRISON","2600 BLK HARRISON","",""
"02/13/2018","07:25","218CR0003722","T/S","T/S @ 100 BLK W PARK ST","100 BLK W PARK ST","",""
 

BSB police report ending February 12, 2018

"02/09/2018","00:17","218CR0003402","ACCIDENT-MHP","ACCIDENT-MHP","I90 WB MM 187","",""
"02/09/2018","00:37","218CR0003403","T/S","T/S","PLATINUM AND MONTANA","",""
"02/09/2018","00:37","218CR0003404","DISTURBANCE-NOISE","DISTURBANCE-NOISE","228 1/2 E SECOND","",""
"02/09/2018","01:38","218CR0003405","BUSINESS CHECK","BUSINESS CHECK","531 S MONTANA","",""
"02/09/2018","01:48","218CR0003406","SUSPICIOUS ACTIVITY","SUSPICIOUS ACTIVITY","GRANITE MOUNTAIN MEMORIAL RD","",""
"02/09/2018","02:12","218CR0003407","SUSPICIOUS ACTIVITY","SUSPICIOUS ACTIVITY","ARIZONA AND SECOND","",""
"02/09/2018","02:52","218CR0003408","ATL","ATL","3751 WYNNE AVE","",""
"02/09/2018","05:17","218CR0003409","MEDICAL - EMERGENCY","MEDICAL - EMERGENCY","1324 HARRISON","",""
"02/09/2018","08:07","218CR0003411","CIVIL PAPER SERVICE","CIVIL PAPER SERVICE","715 ZARELDA","",""
"02/09/2018","08:12","218CR0003412","T/S","SPEEDING","AMHERST AND SHERIDAN","",""
"02/09/2018","08:15","218CR0003413","CIVIL PAPER SERVICE","CIVIL PAPER SERVICE","822 N HENRY","",""
"02/09/2018","08:19","218CR0003414","CIVIL PAPER SERVICE","CIVIL PAPER SERVICE","927 S ARIZONA ST","",""
"02/09/2018","08:21","218CR0003415","WELFARE CHECK","WELFARE CHECK","1953 GEORGE","",""
"02/09/2018","08:49","218CR0003416","ASSAULT","PFMA - REASONABLE APPREHENSION","435 1/2 W SILVER","",""
"02/09/2018","08:53","218CR0003417","ACCIDENT","DUI DRUGS OR ALCOHOL","GRANITE ST AND HENRY ST","ARREST(s) MADE",""
"02/09/2018","08:56","218CR0003418","ACCIDENT- INJURY(MHP)","ACCIDENT- INJURY(MHP)","I15 MM 138 NB","",""
"02/09/2018","08:56","218CR0003419","FIRE- GAS ODOR","FIRE- GAS ODOR","45 E SILVER ST","",""
"02/09/2018","09:01","218CR0003420","T/S","T/S","1600 HOLMES AVE","",""
"02/09/2018","09:43","218CR0003421","HARASSMENT","HARASSMENT","225 N ALASKA","",""
"02/09/2018","09:50","218CR0003422","JUVENILE MISC","JUVENILE MISC","************","",""
"02/09/2018","09:52","218CR0003423","ASSIST OTHER AGENCY","ASSIST OTHER AGENCY","I15MM 138","",""
"02/09/2018","10:07","218CR0003424","CIVIL PAPER SERVICE","CIVIL PAPER SERVICE","903 NEVADA","",""
"02/09/2018","10:33","218CR0003425","CIVIL PAPER SERVICE","CIVIL PAPER SERVICE","3025 EAGLE ST","",""
"02/09/2018","10:44","218CR0003426","TRAFFIC HAZARD","TRAFFIC HAZARD","709 N WYOMING","",""
"02/09/2018","10:56","218CR0003427","CIVIL PAPER SERVICE","CIVIL PAPER SERVICE","303 N WASHINGTON","",""
"02/09/2018","11:03","218CR0003428","DISTURBANCE","DISTURBANCE","735 S MAIN","",""
"02/09/2018","11:17","218CR0003429","MEDICAL - EMERGENCY","MEDICAL - EMERGENCY","TEXAS AND WALL","",""
"02/09/2018","11:21","218CR0003430","ATL","ATL","400 S CLARK","",""
"02/09/2018","11:31","218CR0003431","ACCIDENT","ACCIDENT","MEADOWLARK AND PAXSON","",""
"02/09/2018","11:35","218CR0003432","UNWANTED PERSON","UNWANTED PERSON","************","",""
"02/09/2018","11:51","218CR0003433","T/S","T/S","AMHERST AND SHERIDAN","",""
"02/09/2018","11:54","218CR0003434","MEDICAL - EMERGENCY","MEDICAL - EMERGENCY","4655 HARRISON AVE","",""
"02/09/2018","12:19","218CR0003435","HARASSMENT","HARASSMENT","3901 HARRISON AVE","",""
"02/09/2018","12:19","218CR0003436","MEDICAL - EMERGENCY","MEDICAL - EMERGENCY","307 GRANITE MTN RD","",""
"02/09/2018","13:21","218CR0003437","THEFT","THEFT","1305 STUART","",""
"02/09/2018","13:34","218CR0003438","UNWANTED PERSON","UNWANTED PERSON","************","",""
"02/09/2018","14:04","218CR0003439","WANTED PERSON","WANTED PERSON","************","",""
"02/09/2018","14:05","218CR0003440","DRUGS","DRUGS","************","",""
"02/09/2018","14:39","218CR0003441","ACCIDENT","ACCIDENT","HARRISON AND MCKINLEY","",""
"02/09/2018","14:53","218CR0003442","DISTURBANCE","ROBBERY","3901 HARRISON AVE","ARREST(s) MADE",""
"02/09/2018","14:55","218CR0003443","MEDICAL - EMERGENCY","MEDICAL - EMERGENCY","614 W PARK","",""
"02/09/2018","14:59","218CR0003444","ALL OTHER","ALL OTHER","GRANITE ST AND MONTANA ST","",""
"02/09/2018","15:16","218CR0003445","CITIZEN AID","CITIZEN AID","HOLMES AND LEXINGTON","",""
"02/09/2018","15:27","218CR0003447","THEFT","THEFT","3766 HARRISON AV","",""
"02/09/2018","16:11","218CR0003448","ACCIDENT","CRIMINAL ENDANGERMENT","3001 HARRISON AVE","ARREST(s) MADE",""
"02/09/2018","16:27","218CR0003449","T/S","T/S","SHERIDAN AVE AND AMHERST ST","",""
"02/09/2018","16:54","218CR0003450","THEFT","THEFT, SHOPLIFT","3901 HARRISON AVE","",""
"02/09/2018","17:04","218CR0003451","ALARM - BURGLARY","ALARM - BURGLARY","************","",""
"02/09/2018","17:10","218CR0003452","THEFT","THEFT","1003 MARYLAND","",""
"02/09/2018","17:23","218CR0003453","PARKING COMPLAINT","PARKING COMPLAINT","2801 OTTAWA AVE","",""
"02/09/2018","17:39","218CR0003454","UNWANTED PERSON","UNWANTED PERSON","************","",""
"02/09/2018","18:17","218CR0003455","DISTURBANCE","DISTURBANCE","1003 MARYLAND AVE","",""
"02/09/2018","18:19","218CR0003456","ACCIDENT","ACCIDENT","2939 HARRISON AVE","",""
"02/09/2018","18:53","218CR0003457","JUVENILE MISC","JUVENILE MISC","************","",""
"02/09/2018","19:46","218CR0003458","ALL OTHER","ALL OTHER","901 E FRONT ST","",""
"02/09/2018","20:11","218CR0003459","T/S","T/S","HOWARD ST AND GRAND AVE","",""
"02/09/2018","20:15","218CR0003460","T/S","T/S","FARRELL AND TEXAS AVE","",""
"02/09/2018","20:23","218CR0003461","JUVENILE RUNAWAY","JUVENILE RUNAWAY","************","",""
"02/09/2018","20:36","218CR0003462","INTOXICATED PERSON","INTOXICATED PERSON","933 SUTTER","",""
"02/09/2018","20:44","218CR0003463","BURGLARY","BURGLARY, RESIDENCE","2721 GEORGE ST","",""
"02/09/2018","21:02","218CR0003464","UNWANTED PERSON","UNWANTED PERSON","************","",""
"02/09/2018","21:05","218CR0003465","SNOW REMOVAL COMPLAINT","SNOW REMOVAL COMPLAINT","200 BLK S MONTANA","",""
"02/09/2018","21:09","218CR0003466","ALARM - FIRE","ALARM - FIRE","109 S PARKMONT ST","",""
"02/09/2018","22:13","218CR0003467","DISTURBANCE","PFMA - REASONABLE APPREHENSION","4800 HARRISON #4","ARREST(s) MADE",""
"02/09/2018","23:00","218CR0003468","TRAFFIC","TRAFFIC","2700 BLK OTTAWA","",""
"02/09/2018","23:04","218CR0003469","DISTURBANCE","DISTURBANCE","SAFEWAYS ON MASSACHUSETTS","",""
"02/09/2018","23:29","218CR0003470","ASSAULT","ASSAULT, SIMPLE","IRISH TIMES","",""
"02/09/2018","23:32","218CR0003471","BURGLARY","BURGLARY","206 E SECOND","",""
"02/09/2018","23:34","218CR0003472","ATL","ATL","700 BLK DEWEY","",""
"02/09/2018","23:54","218CR0003473","T/S","T/S","FRONT AND MISSOURI","",""
"02/10/2018","00:06","218CR0003474","WANTED PERSON","RESISTING ARREST","531 S MONTANA TOWN PUMP","ARREST(s) MADE",""
"02/10/2018","00:10","218CR0003475","DISTURBANCE","DISTURBANCE","120 1/2 N IDAHO","",""
"02/10/2018","00:29","218CR0003476","MEDICAL - EMERGENCY","MEDICAL - EMERGENCY","126 N IDAHO","",""
"02/10/2018","00:40","218CR0003477","BUSINESS CHECK","BUSINESS CHECK","1370 HARRISON","",""
"02/10/2018","00:50","218CR0003478","ACCIDENT","DUI - (REFUSAL)","HAIL COLUMBIA GULCH RD","ARREST(s) MADE",""
"02/10/2018","00:52","218CR0003479","TRAFFIC","TRAFFIC","MERCURY AND MAIN","",""
"02/10/2018","00:54","218CR0003480","MEDICAL - EMERGENCY","MEDICAL - EMERGENCY","118 N IDAHO","",""
"02/10/2018","01:07","218CR0003481","BUSINESS CHECK","BUSINESS CHECK","1370 HARRISON TOWN PUMP","",""
"02/10/2018","01:15","218CR0003482","ASSAULT","ASSAULT","************","",""
"02/10/2018","01:16","218CR0003483","DISTURBANCE","DISTURBANCE","116180 STARLITE RD","",""
"02/10/2018","01:37","218CR0003484","WELFARE CHECK","WELFARE CHECK","2310 WALNUT","",""
"02/10/2018","01:55","218CR0003485","T/S","T/S","IDAHO AND GALENA","",""
"02/10/2018","02:04","218CR0003486","BUSINESS CHECK","BUSINESS CHECK","2 E GALENA THE TIMES","",""
"02/10/2018","02:25","218CR0003487","T/S","POSSESSION OF DANGEROUS DRUGS","3100 HARRISON BUTTE PLAZA MALL","",""
"02/10/2018","02:56","218CR0003488","DISTURBANCE","DISTURBANCE","1324 HARRISON","",""
"02/10/2018","03:07","218CR0003489","T/S","T/S","HARRISON AVE AND A ST","",""
"02/10/2018","03:19","218CR0003490","T/S","NO LIABILITY INSURANCE IN EFF.","PARK AND CRYSTAL","",""
"02/10/2018","03:32","218CR0003491","MEDICAL - EMERGENCY","MEDICAL - EMERGENCY","2500 MASSACHUSETTS SAFEWAY","",""
"02/10/2018","03:45","218CR0003492","SUSPICIOUS ACTIVITY","SUSPICIOUS ACTIVITY","FIRST AND IOWA","",""
"02/10/2018","03:54","218CR0003493","BUSINESS CHECK","BUSINESS CHECK","3700 HARRISON MAGIC DIAMOND","",""
"02/10/2018","07:33","218CR0003496","THEFT","THEFT FROM MOTOR VEHICLE","122005 NISSLER","",""
"02/10/2018","09:31","218CR0003497","HARASSMENT","HARASSMENT","123 MINAH","",""
"02/10/2018","09:38","218CR0003498","WELFARE CHECK","WELFARE CHECK","MADISON AND SHIELDS","",""
"02/10/2018","09:41","218CR0003499","UNWANTED PERSON","UNWANTED PERSON","************","",""
"02/10/2018","10:08","218CR0003500","T/S","T/S","ELM AND TEXAS","",""
"02/10/2018","10:15","218CR0003501","CITIZEN AID","CITIZEN AID","225 N ALASKA","",""
"02/10/2018","10:20","218CR0003502","DISTURBANCE","DISTURBANCE","1612 SILVER BOW HOMES","",""
"02/10/2018","10:38","218CR0003503","FIRE - OTHER","FIRE - OTHER","300 MOUNT HIGHLAND DR","",""
"02/10/2018","10:44","218CR0003504","PARKING COMPLAINT","PARKING COMPLAINT","LAPLATTE ST","",""
"02/10/2018","11:12","218CR0003505","MEDICAL - EMERGENCY","MEDICAL - EMERGENCY","1315 S MONTANA","",""
"02/10/2018","11:25","218CR0003506","SUSPICIOUS ACTIVITY","SUSPICIOUS ACTIVITY","1205 S MONTANA","",""
"02/10/2018","11:35","218CR0003507","TRAFFIC HAZARD","TRAFFIC HAZARD","3360 KEOKUK","",""
"02/10/2018","11:54","218CR0003508","THEFT","THEFT","4801 S ARIZONA","",""
"02/10/2018","12:20","218CR0003509","T/S","AGGRAVATED DUI","MADISON AND SHIELDS","ARREST(s) MADE",""
"02/10/2018","12:27","218CR0003510","DISTURBANCE","PFMA - REASONABLE APPREHENSION","4815 S WARREN","ARREST(s) MADE",""
"02/10/2018","12:54","218CR0003511","UNWANTED PERSON","UNWANTED PERSON","************","",""
"02/10/2018","13:33","218CR0003512","ACCIDENT","ACCIDENT","1839 HARRISON AVE","",""
"02/10/2018","13:33","218CR0003513","T/S","T/S @ ","","",""
"02/10/2018","13:36","218CR0003514","WANTED PERSON","CRIMINAL CONTEMPT","400 S CLARK","ARREST(s) MADE",""
"02/10/2018","13:45","218CR0003515","ASSAULT","ASSAULT ON MINOR","1500 FAIRMONT RD","",""
"02/10/2018","13:54","218CR0003516","CIVIL STANDBY","CIVIL STANDBY","927 S ARIZONA","",""
"02/10/2018","15:13","218CR0003517","THEFT","THEFT LOST OR MISLAID PROPERTY","3400 HILL AVE","",""
"02/10/2018","15:36","218CR0003518","HARASSMENT","HARASSMENT","2101 HARRISON AVE","",""
"02/10/2018","15:39","218CR0003519","ANIMAL COMPLAINT","ANIMAL COMPLAINT","I15 NBND MM 131","",""
"02/10/2018","15:59","218CR0003520","JUVENILE MISC","JUVENILE MISC","************","",""
"02/10/2018","16:37","218CR0003521","THEFT","THEFT, SHOPLIFT","3901 HARRISON AVE","",""
"02/10/2018","16:38","218CR0003522","T/S","T/S","GRAND AVE AND HAYES AVE","",""
"02/10/2018","16:57","218CR0003523","STOLEN VEHICLE","MOTOR VEHICLE THEFT","1306 E PARK PL","",""
"02/10/2018","17:33","218CR0003524","CIVIL PAPER SERVICE","CIVIL PAPER SERVICE","2906 EDWARDS ST","",""
"02/10/2018","17:50","218CR0003525","CIVIL PAPER SERVICE","CIVIL PAPER SERVICE","1914 TEXAS AVE","",""
"02/10/2018","18:01","218CR0003526","THEFT","THEFT","3901 HARRISON AVE","",""
"02/10/2018","18:09","218CR0003527","MAN WITH A GUN","MAN WITH A GUN","************","",""
"02/10/2018","18:20","218CR0003528","CITIZEN AID","OPERATING W/EXPIRED PLATES","FRONT ST AND MONTANA ST","",""
"02/10/2018","18:24","218CR0003529","MEDICAL - EMERGENCY","MEDICAL - EMERGENCY","224 S EXCEL","",""
"02/10/2018","18:53","218CR0003530","VANDALISM/CRIMINAL MISCHIEF","VANDALISM/CRIMINAL MISCHIEF","1915 DEWEY","",""
"02/10/2018","19:18","218CR0003531","BUSINESS CHECK","BUSINESS CHECK","1370 HARRISON","",""
"02/10/2018","19:25","218CR0003532","BUSINESS CHECK","BUSINESS CHECK","2701 HARRISON TOWN PUMP","",""
"02/10/2018","19:53","218CR0003533","INTOXICATED PERSON","INTOXICATED PERSON","4800 S HARRISON AVE #12","",""
"02/10/2018","20:18","218CR0003534","WELFARE CHECK","WELFARE CHECK","2009 LOCUST ST","",""
"02/10/2018","20:33","218CR0003535","MEDICAL - EMERGENCY","MEDICAL - EMERGENCY","533 N FRANKLIN ST","",""
"02/10/2018","20:33","218CR0003536","T/S","T/S","GRAND AND CONTINENTAL","",""
"02/10/2018","20:44","218CR0003537","WELFARE CHECK","WELFARE CHECK","2905 HARRISON AVE","",""
"02/10/2018","20:45","218CR0003538","ALARM - FIRE","ALARM - FIRE","2324 WALNUT","",""
"02/10/2018","21:18","218CR0003539","SUSPICIOUS ACTIVITY","SUSPICIOUS ACTIVITY","2006 SILVER BOW BLVD","",""
"02/10/2018","21:23","218CR0003540","JUVENILE MISC","JUVENILE MISC","************","",""
"02/10/2018","21:27","218CR0003541","ALL OTHER","ALL OTHER","2609 HARRISON","",""
"02/10/2018","21:38","218CR0003542","DISTURBANCE","RESISTING ARREST","2006 SILVER BOW BLVD","ARREST(s) MADE",""
"02/10/2018","21:44","218CR0003543","VANDALISM/CRIMINAL MISCHIEF","CRIMINAL MISCHIEF","932 UTAH","",""
"02/10/2018","22:04","218CR0003544","MEDICAL - EMERGENCY","MEDICAL - EMERGENCY","614 W PARK","",""
"02/10/2018","22:06","218CR0003545","ACCIDENT","ACCIDENT","SILVERBOW HOMES S PARKING LOT","",""
"02/10/2018","22:31","218CR0003546","T/S","T/S @ LONGFELLOW ST AND HARRISON AVE","LONGFELLOW ST AND HARRISON AVE","",""
"02/10/2018","22:41","218CR0003547","WELFARE CHECK","WELFARE CHECK","1432 EASY ST","",""
"02/10/2018","22:48","218CR0003548","ATL","ATL","MONTANA AND SECOND","",""
"02/10/2018","23:05","218CR0003549","T/S","T/S","ALUMINUM AND MONTANA","",""
"02/10/2018","23:11","218CR0003550","T/S","DUI - (REFUSAL)","ALUMINUM AND MONTANA","ARREST(s) MADE",""
"02/10/2018","23:22","218CR0003551","SUSPICIOUS ACTIVITY","SUSPICIOUS ACTIVITY","SUPER 8 MOTEL PARKING LOT","",""
"02/10/2018","23:30","218CR0003552","T/S","T/S","HARRISON AND ELIZ WARREN","",""
"02/10/2018","23:58","218CR0003553","WELFARE CHECK","WELFARE CHECK","HOWARD AND HARRISON","",""
"02/11/2018","00:05","218CR0003554","HIT AND RUN","NO LIABILITY INSURANCE IN EFF.","300 BLK S ARIZONA","",""
"02/11/2018","00:07","218CR0003555","T/S","T/S","MONTANA AND IDAHO","",""
"02/11/2018","00:08","218CR0003556","T/S","T/S","EVANS AND MARYLAND","",""
"02/11/2018","00:11","218CR0003557","T/S","T/S","3500 HARRISON THRIFTWAY","",""
"02/11/2018","00:14","218CR0003558","T/S","T/S @ CASEY AND KAW","CASEY AND KAW","",""
"02/11/2018","00:17","218CR0003559","T/S","T/S @ PARK AND MONTANA","PARK AND MONTANA","",""
"02/11/2018","00:52","218CR0003561","MEDICAL - ASSIST","MEDICAL - ASSIST","************","",""
"02/11/2018","00:53","218CR0003560","MEDICAL - EMERGENCY","MEDICAL - EMERGENCY","3218 EVANS","",""
"02/11/2018","01:30","218CR0003562","DISTURBANCE","DISTURBANCE","SAGE BRUSH SAMS","",""
"02/11/2018","01:30","218CR0003563","DISTURBANCE","DISTURBANCE","1232 RACOON WAY","",""
"02/11/2018","01:31","218CR0003564","T/S","T/S","10TH AND ALABAMA","",""
"02/11/2018","01:46","218CR0003565","HIT AND RUN","HIT AND RUN","1677 GRAND AVE","",""
"02/11/2018","02:00","218CR0003566","TRAFFIC HAZARD","TRAFFIC HAZARD","MONTANA AND JAMES ST","",""
"02/11/2018","02:07","218CR0003567","SUSPICIOUS ACTIVITY","SUSPICIOUS ACTIVITY","1 W PARK","",""
"02/11/2018","02:56","218CR0003568","MEDICAL - EMERGENCY","MEDICAL - EMERGENCY","2065 MASSACHUSETTS","",""
"02/11/2018","03:08","218CR0003569","ALL OTHER","ALL OTHER","ATLANTIC AND FIRST","",""
"02/11/2018","03:26","218CR0003570","UNWANTED PERSON","UNWANTED PERSON","************","",""
"02/11/2018","05:15","218CR0003571","PATROL REQUEST","DUI - (REFUSAL)","1300 BLOCK HARRISON AVE","ARREST(s) MADE",""
"02/11/2018","05:37","218CR0003572","DISTURBANCE-NOISE","DISTURBANCE-NOISE","183 TRINITY LOOP","",""
"02/11/2018","06:02","218CR0003573","SUSPICIOUS ACTIVITY","SUSPICIOUS ACTIVITY","1740 HOLMES","",""
"02/11/2018","06:15","218CR0003574","SUSPICIOUS ACTIVITY","SUSPICIOUS ACTIVITY","EXCEL AND CENTENNIAL","",""
"02/11/2018","08:15","218CR0003575","LED BUSINESS","LED BUSINESS","400 S CLARK","",""
"02/11/2018","08:33","218CR0003576","HARASSMENT","THEFT, ALL OTHERS","1285 HARRISON AVE","",""
"02/11/2018","08:43","218CR0003577","SUSPICIOUS ACTIVITY","SUSPICIOUS ACTIVITY","1828 TEXAS","",""
"02/11/2018","09:00","218CR0003578","HIT AND RUN","HIT AND RUN","2101 A HARRISON AVE","",""
"02/11/2018","09:03","218CR0003579","HIT AND RUN","HIT AND RUN, UNATTENDED VEHICL","205 HUMBUG","",""
"02/11/2018","09:22","218CR0003580","CIVIL PAPER SERVICE","CIVIL PAPER SERVICE","1914 TEXAS AVE","",""
"02/11/2018","09:29","218CR0003581","CIVIL PAPER SERVICE","CIVIL PAPER SERVICE","1911 PORTER","",""
"02/11/2018","09:31","218CR0003582","MEDICAL - EMERGENCY","MEDICAL - EMERGENCY","4824 HUTCH DR","",""
"02/11/2018","09:37","218CR0003583","ALARM-DURESS","ALARM-DURESS","************","",""
"02/11/2018","10:23","218CR0003584","T/S","T/S","2100 BLK AMHERST","",""
"02/11/2018","10:26","218CR0003585","T/S","T/S","SAMPSON AND HARRISON","",""
"02/11/2018","10:31","218CR0003586","T/S","T/S","BUSCH AND GILMAN","",""
"02/11/2018","11:20","218CR0003587","PARKING COMPLAINT","TRAFFIC HAZARD","45 W WOOLMAN","",""
"02/11/2018","12:06","218CR0003588","VANDALISM/CRIMINAL MISCHIEF","VANDALISM/CRIMINAL MISCHIEF","1201 S MONTANA","",""
"02/11/2018","12:57","218CR0003589","T/S","T/S @ ARIZONA ST AND GALENA ST","ARIZONA ST AND GALENA ST","",""
"02/11/2018","13:02","218CR0003590","SUSPICIOUS ACTIVITY","SUSPICIOUS ACTIVITY","1340 HARRISON AVE","",""
"02/11/2018","13:40","218CR0003591","T/S","T/S","SHIELDS AVE AND TEXAS AVE","",""
"02/11/2018","13:46","218CR0003592","ATL","ATL","ELK PARK","",""
"02/11/2018","13:52","218CR0003593","ACCIDENT","ACCIDENT","848 W PARK ST","",""
"02/11/2018","14:52","218CR0003594","MEDICAL - EMERGENCY","MEDICAL - EMERGENCY","5101 S WARREN #12A","",""
"02/11/2018","15:15","218CR0003595","THEFT","THEFT, SHOPLIFT","3901 HARRISON AVE","",""
"02/11/2018","16:03","218CR0003597","UNKNOWN PROBLEM","UNKNOWN PROBLEM","CASEY AND KAW","",""
"02/11/2018","16:41","218CR0003598","T/S","T/S","155 W GRANITE STREET","",""
"02/11/2018","16:50","218CR0003599","INFORMATION ONLY","INFORMATION ONLY","","",""
"02/11/2018","17:10","218CR0003600","ALL OTHER","ALL OTHER","1735 PHILLIPS AVE","",""
"02/11/2018","17:50","218CR0003601","DISTURBANCE","DISTURBANCE","722 S MONTANA ST APT B","",""
"02/11/2018","17:51","218CR0003602","T/S","T/S @ FARRELL AND CHICAGO","FARRELL AND CHICAGO","",""
"02/11/2018","18:02","218CR0003603","WELFARE CHECK","WELFARE CHECK","1911 PORTER","",""
"02/11/2018","18:08","218CR0003604","LED BUSINESS","LED BUSINESS","155 W QUARTZ","",""
"02/11/2018","18:11","218CR0003605","UNKNOWN PROBLEM","UNKNOWN PROBLEM","1306 SILVER BOW HOMES","",""
"02/11/2018","18:22","218CR0003606","THEFT","CRIMINAL TRESPASS TO PROPERTY","3901 HARRISON AVE","ARREST(s) MADE",""
"02/11/2018","18:30","218CR0003607","MEDICAL - EMERGENCY","MEDICAL - EMERGENCY","800 FOUR MILE ROAD","",""
"02/11/2018","18:37","218CR0003608","ASSIST OTHER AGENCY","ASSIST OTHER AGENCY","","",""
"02/11/2018","18:43","218CR0003609","ALL OTHER","ALL OTHER","205 W GRANITE ST #306","",""
"02/11/2018","18:51","218CR0003610","MEDICAL - EMERGENCY","MEDICAL - EMERGENCY","109 RUBY ST","",""
"02/11/2018","18:51","218CR0003611","ASSIST OTHER AGENCY","ASSIST OTHER AGENCY","I90 MM 214 EB","",""
"02/11/2018","19:07","218CR0003612","T/S","T/S","HARRISON AVE AND CORNELL","",""
"02/11/2018","19:24","218CR0003614","HARASSMENT","HARASSMENT","401 N WYOMING ST","",""
"02/11/2018","19:43","218CR0003615","HARASSMENT","HARASSMENT","659 W GRANITE","",""
"02/11/2018","20:22","218CR0003616","VANDALISM/CRIMINAL MISCHIEF","VANDALISM/CRIMINAL MISCHIEF","1350 RACCOON WY","",""
"02/11/2018","20:28","218CR0003617","DISTURBANCE","PFMA - MINOR INJ/PHYSICAL CONT","2720 PINE ST","",""
"02/11/2018","20:58","218CR0003618","ALL OTHER","ALL OTHER","1955 DEWEY BLVD","",""
"02/11/2018","21:17","218CR0003619","ALL OTHER","ALL OTHER","2904 HILL AVE","",""
"02/11/2018","21:59","218CR0003620","SUSPICIOUS ACTIVITY","SUSPICIOUS ACTIVITY","811 MARYLAND","",""
"02/11/2018","22:41","218CR0003621","ASSAULT","ASSAULT","************","",""
"02/11/2018","23:04","218CR0003622","ALARM - BURGLARY","ALARM - BURGLARY","************","",""
"02/11/2018","23:32","218CR0003623","DISTURBANCE-NOISE","DISTURBANCE-NOISE","711 SILVERBOW HOMES","",""
"02/11/2018","23:57","218CR0003624","SUSPICIOUS ACTIVITY","SUSPICIOUS ACTIVITY","3002 WYNNE AVE","",""
"02/12/2018","00:11","218CR0003625","ALL OTHER","ALL OTHER","910 EVANS #D2","",""
"02/12/2018","00:33","218CR0003626","BUSINESS CHECK","BUSINESS CHECK","1370 HARRISON","",""
"02/12/2018","00:41","218CR0003627","BUSINESS CHECK","POSSESS DRUG PARAPHERNALIA","531 S MONTANA TOWN PUMP","ARREST(s) MADE",""
"02/12/2018","01:02","218CR0003628","CITIZEN AID","CITIZEN AID","400 S CLARK ST JAMES ER","",""
"02/12/2018","03:24","218CR0003629","MEDICAL - EMERGENCY","MEDICAL - EMERGENCY","212 SILVERBOW HOMES","",""
"02/12/2018","03:31","218CR0003630","FIRE - OTHER","FIRE - OTHER","1741 HARRISON HARRISON AVE LIQ","",""
"02/12/2018","05:14","218CR0003631","T/S","T/S @ HARRISON AND ELIZ WARREN","HARRISON AND ELIZ WARREN","",""
"02/12/2018","05:53","218CR0003632","T/S","T/S","DEWEY AND HARRISON","",""
 

BSB police report ending February 8, 2018

"02/07/2018","00:01","218CR0003196","SUSPICIOUS ACTIVITY","SUSPICIOUS ACTIVITY","1400 BLK HARRISON","",""
"02/07/2018","00:29","218CR0003197","T/S","DRIVING W/OUT VALID D/L","1304 HARRISON","",""
"02/07/2018","00:56","218CR0003198","SUSPICIOUS ACTIVITY","SUSPICIOUS ACTIVITY","BUFFALO AND MAIN","",""
"02/07/2018","01:31","218CR0003199","SUSPICIOUS ACTIVITY","THEFT, ALL OTHERS","2305 CONTINENTAL","",""
"02/07/2018","01:53","218CR0003200","SUSPICIOUS ACTIVITY","SUSPICIOUS ACTIVITY","2620 ST ANN ST","",""
"02/07/2018","02:23","218CR0003201","T/S","NO LIABILITY INSURANCE IN EFF.","HARRISON AND MAJORS","",""
"02/07/2018","02:28","218CR0003202","T/S","OPERATING W/EXPIRED PLATES","GEORGE AND OREGON","",""
"02/07/2018","02:28","218CR0003203","T/S","T/S @ ","","",""
"02/07/2018","02:36","218CR0003204","DOMESTIC ABUSE","DOMESTIC ABUSE","************","",""
"02/07/2018","05:02","218CR0003205","MEDICAL - EMERGENCY","MEDICAL - EMERGENCY","15 E FREMONT ST","",""
"02/07/2018","05:13","218CR0003206","ALARM - BURGLARY","ALARM - BURGLARY","************","",""
"02/07/2018","05:40","218CR0003208","DISTURBANCE","DISTURBANCE","1911 PORTER","",""
"02/07/2018","05:41","218CR0003207","DISTURBANCE","CRIMINAL CONTEMPT","1911 PORTER","ARREST(s) MADE",""
"02/07/2018","05:57","218CR0003209","BURGLARY","BURGLARY, NON-RESIDENCE","102 S ARIZONA ST","",""
"02/07/2018","06:10","218CR0003210","VANDALISM/CRIMINAL MISCHIEF","VANDALISM/CRIMINAL MISCHIEF","1957 GAYLORD","",""
"02/07/2018","06:21","218CR0003211","THEFT","THEFT","3901 HARRISON AVE","",""
"02/07/2018","06:31","218CR0003212","DISTURBANCE","DISTURBANCE","1200 BLK E SECOND","",""
"02/07/2018","06:47","218CR0003213","UNWANTED PERSON","UNWANTED PERSON","************","",""
"02/07/2018","06:47","218CR0003214","MEDICAL - EMERGENCY","MEDICAL - EMERGENCY","1900 THOMAS AVE","",""
"02/07/2018","06:50","218CR0003215","MEDICAL - EMERGENCY","MEDICAL - EMERGENCY","155 W QUARTZ","",""
"02/07/2018","07:56","218CR0003216","DISTURBANCE","DISTURBANCE","1411 MOTORVIEW RD","",""
"02/07/2018","08:10","218CR0003217","MEDICAL - EMERGENCY","MEDICAL - EMERGENCY","100 GARDENS WAY RM 159","",""
"02/07/2018","08:19","218CR0003219","THEFT","THEFT","3101 MANTLE","",""
"02/07/2018","08:19","218CR0003218","T/S","T/S","OTTAWA AND CONTINENTAL DR","",""
"02/07/2018","08:35","218CR0003220","CIVIL PAPER SERVICE","CIVIL PAPER SERVICE","617 W IRON","",""
"02/07/2018","08:38","218CR0003221","CIVIL PAPER SERVICE","CIVIL PAPER SERVICE","809 TRAVONIA","",""
"02/07/2018","08:47","218CR0003222","CIVIL PAPER SERVICE","CIVIL PAPER SERVICE","2200 ARGYLE","",""
"02/07/2018","08:52","218CR0003223","ASSIST OTHER AGENCY","ASSIST OTHER AGENCY","55 BASIN CREEK RD","",""
"02/07/2018","09:14","218CR0003224","MEDICAL - EMERGENCY","MEDICAL - EMERGENCY","16 W GALENA APT F","",""
"02/07/2018","09:37","218CR0003225","LED BUSINESS","LED BUSINESS","155 W GRANITE","",""
"02/07/2018","10:24","218CR0003226","ABANDONED VEHICLE","ABANDONED VEHICLE","BUFFALO AND MAIN","",""
"02/07/2018","10:35","218CR0003227","JUVENILE MISC","POSSESS ALCOHOL OR INTOXICANT","1050 S MONTANA","",""
"02/07/2018","10:40","218CR0003228","ASSIST OTHER AGENCY","ASSIST OTHER AGENCY","I15 MM123 SB","",""
"02/07/2018","10:44","218CR0003229","T/S","T/S @ MERCURY AND MONTANA","MERCURY AND MONTANA","",""
"02/07/2018","10:45","218CR0003230","DISTURBANCE","DISTURBANCE","155 W GRANITE","",""
"02/07/2018","10:50","218CR0003231","FRAUD","GAMBLING FRAUD","122001 W BROWNS GULCH RD","",""
"02/07/2018","11:00","218CR0003232","THEFT","THEFT FROM MOTOR VEHICLE","2700 HARRISON AVE","",""
"02/07/2018","11:12","218CR0003233","CIVIL STANDBY","CIVIL STANDBY","2501 PARROT ST","",""
"02/07/2018","11:25","218CR0003234","T/S","T/S @ MAIN AND ALUMINUM","MAIN AND ALUMINUM","",""
"02/07/2018","11:47","218CR0003235","BURGLARY","CRIMINAL MISCHIEF","520 S DAKOTA","",""
"02/07/2018","12:15","218CR0003236","THEFT","THEFT","127 W BROADWAY","",""
"02/07/2018","13:18","218CR0003237","T/S","T/S @ MONTANA AND HOLLAND","MONTANA AND HOLLAND","",""
"02/07/2018","13:30","218CR0003238","T/S","T/S @ 800 BLK S MONTANA","800 BLK S MONTANA","",""
"02/07/2018","13:40","218CR0003239","T/S","T/S @ MONTANA ST AND IRON","MONTANA ST AND IRON","",""
"02/07/2018","13:47","218CR0003240","DETENTION BUSINESS","DETENTION BUSINESS","************","",""
"02/07/2018","14:19","218CR0003241","DISTURBANCE","DISTURBANCE","SECOND AND EMMA","",""
"02/07/2018","14:24","218CR0003242","FOUND PROPERTY","FOUND PROPERTY","************","",""
"02/07/2018","14:34","218CR0003243","MEDICAL - EMERGENCY","MEDICAL - EMERGENCY","29 PESANTI LANE","",""
"02/07/2018","15:09","218CR0003245","ABANDONED VEHICLE","ABANDONED VEHICLE","10 BLK W BUFFALO","",""
"02/07/2018","15:25","218CR0003246","ACCIDENT","ACCIDENT","FRONT AND MONTANA ST","",""
"02/07/2018","15:32","218CR0003247","ASSAULT","ASSAULT, SIMPLE","3901 HARRISON AVE","",""
"02/07/2018","15:42","218CR0003248","ALL OTHER","ALL OTHER","225 N ALASKA ST","",""
"02/07/2018","15:46","218CR0003249","T/S","T/S @ LEXINGTON AVE AND ROWE RD","LEXINGTON AVE AND ROWE RD","",""
"02/07/2018","15:56","218CR0003250","T/S","T/S","OREGON AVE AND SCHLEY ST","",""
"02/07/2018","15:56","218CR0003251","T/S","T/S @ KENNEDY AVE AND DEWEY BLVD","KENNEDY AVE AND DEWEY BLVD","",""
"02/07/2018","16:03","218CR0003252","THEFT","THEFT","1618 ELM ST","",""
"02/07/2018","16:12","218CR0003253","MEDICAL - EMERGENCY","MEDICAL - EMERGENCY","901 DELAWARE AVE","",""
"02/07/2018","16:14","218CR0003254","UNKNOWN PROBLEM","UNKNOWN PROBLEM","2011 ELM ST","",""
"02/07/2018","16:21","218CR0003255","T/S","T/S @ HARRISON AND CIVIC CENTER","HARRISON AND CIVIC CENTER","",""
"02/07/2018","16:32","218CR0003256","THEFT","THEFT","1515 OREGON AVE APT 502","",""
"02/07/2018","16:34","218CR0003257","FRAUD","THEFT, ALL OTHERS","1555 HARRISON","",""
"02/07/2018","16:49","218CR0003258","DISTURBANCE","DISTURBANCE","901 S WASHINGTON ST #16","",""
"02/07/2018","16:58","218CR0003259","FRAUD","THEFT, ALL OTHERS","1555 HARRISON AVE","",""
"02/07/2018","17:03","218CR0003260","FRAUD","THEFT, ALL OTHERS","1555 HARRISON AVE","",""
"02/07/2018","17:05","218CR0003261","SUSPICIOUS ACTIVITY","SUSPICIOUS ACTIVITY","4034 ELIZABETH WARREN #114","",""
"02/07/2018","17:10","218CR0003262","TRAFFIC","TRAFFIC","800 BLK CALEDONIA","",""
"02/07/2018","17:15","218CR0003263","UNWANTED PERSON","UNWANTED PERSON","************","",""
"02/07/2018","17:24","218CR0003264","WELFARE CHECK","WELFARE CHECK","834 ZARELDA ST","",""
"02/07/2018","17:29","218CR0003265","RESTRAINING ORDER VIOLATION","VIOLATION OF PROTECTION ORDER","1640 WILSON","",""
"02/07/2018","17:38","218CR0003266","ALL OTHER","ALL OTHER","2222 WALL ST","",""
"02/07/2018","17:51","218CR0003267","BUSINESS CHECK","BUSINESS CHECK","531 S MONTANA","",""
"02/07/2018","17:53","218CR0003268","T/S","T/S @ SECOND AND GARDEN","SECOND AND GARDEN","",""
"02/07/2018","18:03","218CR0003269","T/S","T/S @ MONTANA ST AND ALUMINUM ST","MONTANA ST AND ALUMINUM ST","",""
"02/07/2018","18:09","218CR0003270","T/S","T/S @ DAKOTA ST AND GOLD ST","DAKOTA ST AND GOLD ST","",""
"02/07/2018","18:21","218CR0003271","T/S","T/S @ SECOND ST AND UTAH ST","SECOND ST AND UTAH ST","",""
"02/07/2018","18:27","218CR0003272","CIVIL PAPER SERVICE","CIVIL PAPER SERVICE","1305 STUART","",""
"02/07/2018","18:33","218CR0003273","T/S","T/S","HARRISON AVE AND CLEVLAND ST","",""
"02/07/2018","18:33","218CR0003274","CIVIL STANDBY","CIVIL STANDBY","2222 WALL","",""
"02/07/2018","18:35","218CR0003275","CITIZEN AID","CITIZEN AID","ARIZONA AND PLATINUM","",""
"02/07/2018","18:37","218CR0003276","T/S","POSSESSION OF DANGEROUS DRUGS","BROADWAY AND WYOMING","ARREST(s) MADE",""
"02/07/2018","18:42","218CR0003277","T/S","T/S","SHERIDAN AND STATE ST","",""
"02/07/2018","18:56","218CR0003278","UNWANTED PERSON","UNWANTED PERSON","************","",""
"02/07/2018","19:02","218CR0003279","UNWANTED PERSON","UNWANTED PERSON","************","",""
"02/07/2018","19:03","218CR0003280","SUSPICIOUS ACTIVITY","SUSPICIOUS ACTIVITY","ATLANTIC AND FRONT","",""
"02/07/2018","19:10","218CR0003281","SUSPICIOUS ACTIVITY","SUSPICIOUS ACTIVITY","2544 HARRISON","",""
"02/07/2018","19:30","218CR0003282","SUSPICIOUS ACTIVITY","SUSPICIOUS ACTIVITY","401 S WYOMING ST","",""
"02/07/2018","19:52","218CR0003283","ALARM - FIRE","ALARM - FIRE","1909 WILSON","",""
"02/07/2018","20:14","218CR0003284","SUSPICIOUS ACTIVITY","SUSPICIOUS ACTIVITY","528 W QUARTZ","",""
"02/07/2018","20:32","218CR0003285","ATL","ATL","HARRISON AND PRINCETON","",""
"02/07/2018","21:20","218CR0003286","INTIMIDATION","OUT OF JURISDICTION - FELONY","219 1/2 S WASHINGTON","",""
"02/07/2018","21:47","218CR0003287","THEFT","THEFT, ALL OTHERS","1370 HARRISION/TOWN PUMP","",""
"02/07/2018","22:08","218CR0003288","T/S","T/S @ COBBAN AND THORNTON ST","COBBAN AND THORNTON ST","",""
"02/07/2018","22:20","218CR0003289","BUSINESS CHECK","BUSINESS CHECK","1370 HARRISON AVE","",""
"02/07/2018","22:21","218CR0003290","SUSPICIOUS ACTIVITY","SUSPICIOUS ACTIVITY","SECOND ST AND SHEILDS AVE","",""
"02/07/2018","22:34","218CR0003291","WELFARE CHECK","WELFARE CHECK","520 N WYOMING","",""
"02/07/2018","22:34","218CR0003292","UNWANTED PERSON","UNWANTED PERSON","************","",""
"02/07/2018","22:37","218CR0003293","ATL","PFMA - MINOR INJ/PHYSICAL CONT","531 S MONTANA","ARREST(s) MADE",""
"02/07/2018","22:54","218CR0003294","BURGLARY","BURGLARY, RESIDENCE","643 S MAIN ST","",""
"02/07/2018","23:00","218CR0003295","ALL OTHER","ALL OTHER","531 S MONTANA","",""
"02/07/2018","23:17","218CR0003296","SUSPICIOUS ACTIVITY","SUSPICIOUS ACTIVITY","600 BLK PLACER ST","",""
"02/07/2018","23:29","218CR0003297","SUSPICIOUS ACTIVITY","SUSPICIOUS ACTIVITY","1100 BLK OREGON","",""
"02/07/2018","23:48","218CR0003298","ASSAULT","ASSAULT","************","",""
"02/07/2018","23:54","218CR0003299","UNWANTED PERSON","UNWANTED PERSON","************","",""
"02/08/2018","00:14","218CR0003300","CITIZEN AID","CITIZEN AID","1131 MISSOURI #D","",""
"02/08/2018","01:30","218CR0003301","MEDICAL - EMERGENCY","MEDICAL - EMERGENCY","901 DELAWARE AVE","",""
"02/08/2018","01:35","218CR0003302","BUSINESS CHECK","BUSINESS CHECK","531 S MONTANA","",""
"02/08/2018","01:35","218CR0003303","DISTURBANCE","DISTURBANCE","2740 ELM/JIMS BAR","",""
"02/08/2018","01:57","218CR0003304","T/S","DUI DRUGS OR ALCOHOL","PLATINUM AND ARIZONA","ARREST(s) MADE",""
"02/08/2018","01:59","218CR0003305","SUSPICIOUS ACTIVITY","SUSPICIOUS ACTIVITY","607 W GRANITE","",""
"02/08/2018","02:04","218CR0003306","DISTURBANCE","DISTURBANCE","2720 PINE ST","",""
"02/08/2018","02:06","218CR0003307","PROWLER","PROWLER","2421 LOCUST","",""
"02/08/2018","02:17","218CR0003309","ALL OTHER","ALL OTHER","123 MINAH","",""
"02/08/2018","02:25","218CR0003310","BUSINESS CHECK","BUSINESS CHECK","1203 HOWARD AVE","",""
"02/08/2018","02:29","218CR0003311","INTOXICATED PERSON","INTOXICATED PERSON","2720 PINE ST","",""
"02/08/2018","02:47","218CR0003312","FIRE - OTHER","FIRE - OTHER","2017 GRAND AVE","",""
"02/08/2018","03:07","218CR0003313","T/S","T/S","MERCURY ST AND OHIO ST","",""
"02/08/2018","03:30","218CR0003314","MEDICAL - EMERGENCY","MEDICAL - EMERGENCY","3119 GOODWIN","",""
"02/08/2018","04:57","218CR0003315","SUSPICIOUS ACTIVITY","SUSPICIOUS ACTIVITY","EVANS ST AND LEXINGTON AVE","",""
"02/08/2018","05:29","218CR0003316","DISTURBANCE","DISTURBANCE","529 S IDAHO","",""
"02/08/2018","06:42","218CR0003317","DISTURBANCE","DISTURBANCE","531 S MONTANA","",""
"02/08/2018","07:17","218CR0003318","ALARM - BURGLARY","ALARM - BURGLARY","************","",""
"02/08/2018","07:24","218CR0003320","CIVIL PAPER SERVICE","CIVIL PAPER SERVICE","62 W BROADWAY","",""
"02/08/2018","07:37","218CR0003322","CIVIL PAPER SERVICE","CIVIL PAPER SERVICE","715 ZARELDA","",""
 

BSB police report ending February 7, 2018

"02/06/2018","00:31","218CR0003112","UNKNOWN PROBLEM","UNKNOWN PROBLEM","1021 GAYLORD","",""
"02/06/2018","00:55","218CR0003113","SUSPICIOUS ACTIVITY","SUSPICIOUS ACTIVITY","UTAH AVE AND ALUMINUM ST","",""
"02/06/2018","01:26","218CR0003114","PROWLER","PROWLER","1221 FARRELL","",""
"02/06/2018","01:48","218CR0003115","SUSPICIOUS ACTIVITY","SUSPICIOUS ACTIVITY","HAMBLIN HEIGHTS","",""
"02/06/2018","03:21","218CR0003116","SUSPICIOUS ACTIVITY","SUSPICIOUS ACTIVITY","705 E IRON SUMMIT VALLEY AUTO","",""
"02/06/2018","03:25","218CR0003117","SUSPICIOUS ACTIVITY","SUSPICIOUS ACTIVITY","2207 SILVERBOW BLVD","",""
"02/06/2018","04:43","218CR0003118","DISTURBANCE-NOISE","DISTURBANCE-NOISE","3519 GAYLORD","",""
"02/06/2018","05:27","218CR0003119","TRAFFIC","TRAFFIC","MONTANA AND TECUMSEH","",""
"02/06/2018","05:36","218CR0003120","MEDICAL - EMERGENCY","MEDICAL - EMERGENCY","1324 HARRISON","",""
"02/06/2018","05:42","218CR0003121","ROBBERY","ROBBERY","1507 CALIFORNIA","",""
"02/06/2018","06:15","218CR0003122","MEDICAL - EMERGENCY","MEDICAL - EMERGENCY","1803 PHILLIPS AVE","",""
"02/06/2018","06:25","218CR0003123","DISTURBANCE","DISTURBANCE","1324 HARRISON","",""
"02/06/2018","07:27","218CR0003124","UNWANTED PERSON","UNWANTED PERSON","************","",""
"02/06/2018","07:47","218CR0003125","LED BUSINESS","LED BUSINESS","155 W GRANITE","",""
"02/06/2018","07:48","218CR0003126","CIVIL STANDBY","CIVIL STANDBY","417 VIRGINIA ST","",""
"02/06/2018","08:12","218CR0003127","ABANDONED VEHICLE- PRIVATE PRO","ABANDONED VEHICLE- PRIVATE PRO","3701 HARRISON GLACIER BANK","",""
"02/06/2018","08:21","218CR0003128","DISTURBANCE","DISTURBANCE","910 EVANS D2","",""
"02/06/2018","09:03","218CR0003129","UNWANTED PERSON","UNWANTED PERSON","************","",""
"02/06/2018","09:56","218CR0003130","ALARM - BURGLARY","ALARM - BURGLARY","************","",""
"02/06/2018","10:18","218CR0003131","WELFARE CHECK","WELFARE CHECK","526 S COLORADO","",""
"02/06/2018","10:41","218CR0003132","WELFARE CHECK","WELFARE CHECK","1955 OREGON AVE","",""
"02/06/2018","11:32","218CR0003133","WELFARE CHECK","WELFARE CHECK","100 BLK W QUARTZ","",""
"02/06/2018","11:42","218CR0003134","ASSAULT","PFMA - MINOR INJ/PHYSICAL CONT","EXCELSIOR//PORPHYRY","",""
"02/06/2018","12:01","218CR0003135","DISTURBANCE","DISTURBANCE","910 EVANS APT B2","",""
"02/06/2018","12:08","218CR0003136","THEFT","THEFT","225 ALASKA","",""
"02/06/2018","12:09","218CR0003137","FRAUD","FRAUD","2325 HARRISON AVE","",""
"02/06/2018","12:34","218CR0003138","LED BUSINESS","LED BUSINESS","EXCELSIOR AND WOOLMAN","",""
"02/06/2018","12:44","218CR0003139","FIRE - STRUCTURE","FIRE - STRUCTURE","304 N MAIN","",""
"02/06/2018","12:47","218CR0003140","CIVIL PAPER SERVICE","CIVIL PAPER SERVICE","68 W BROADWAY","",""
"02/06/2018","12:55","218CR0003141","UNKNOWN PROBLEM","UNKNOWN PROBLEM","801 S UTAH AVE","",""
"02/06/2018","13:00","218CR0003142","JUVENILE RUNAWAY","UNGOVERNABLE JUVENILE","116 WINDEMEER CT","",""
"02/06/2018","14:08","218CR0003143","T/S","T/S @ MAJORS AND HARRISON AVE","MAJORS AND HARRISON AVE","",""
"02/06/2018","15:02","218CR0003144","CITIZEN AID","CITIZEN AID","225 N ALASKA ST","",""
"02/06/2018","15:12","218CR0003145","ALL OTHER","ALL OTHER","2210 OTTAWA","",""
"02/06/2018","15:14","218CR0003146","T/S","T/S @ GOLD AND MONTANA","GOLD AND MONTANA","",""
"02/06/2018","15:16","218CR0003147","ACCIDENT - INJURY","ACCIDENT - INJURY","IDAHO AND SILVER","",""
"02/06/2018","15:33","218CR0003148","T/S","T/S","IDAHO AND GALENA","",""
"02/06/2018","15:38","218CR0003149","INFORMATION ONLY","INFORMATION ONLY","WOOLAM // EXCELSIOR","",""
"02/06/2018","15:40","218CR0003150","THEFT","THEFT, ALL OTHERS","2234 GRAND AVE","",""
"02/06/2018","15:41","218CR0003151","ALARM - FIRE","ALARM - FIRE","3450 MONROE MACKENZIE RIVER","",""
"02/06/2018","15:42","218CR0003152","FRAUD","FRAUD","127 W BROADWAY","",""
"02/06/2018","16:01","218CR0003153","ABANDONED VEHICLE","ABANDONED VEHICLE","2729 ABERDEEN","",""
"02/06/2018","16:11","218CR0003154","ALL OTHER","ALL OTHER","1320 WESTSIDE BLVD","",""
"02/06/2018","16:21","218CR0003155","T/S","CRIMINAL CONTEMPT","HARRISON AND GRAND","ARREST(s) MADE",""
"02/06/2018","16:33","218CR0003157","ATL","ATL","HARRISON AVE AND HIGHWAY 2","",""
"02/06/2018","16:34","218CR0003158","CIVIL STANDBY","CIVIL STANDBY","225 N ALASKA","",""
"02/06/2018","16:40","218CR0003159","VANDALISM/CRIMINAL MISCHIEF","CRIMINAL MISCHIEF","520 S IDAHO","",""
"02/06/2018","16:59","218CR0003160","T/S","T/S @ MT AND TECUMSEH","MT AND TECUMSEH","",""
"02/06/2018","17:06","218CR0003161","T/S","T/S @ PLATINUM ST AND MONTANA ST","PLATINUM ST AND MONTANA ST","",""
"02/06/2018","17:30","218CR0003162","ALL OTHER","ALL OTHER","420 VIRGINIA ST","",""
"02/06/2018","17:37","218CR0003163","T/S","T/S","FRONT AND DELEWARE","",""
"02/06/2018","18:04","218CR0003164","T/S","T/S @ FARRELL AND HAYES","FARRELL AND HAYES","",""
"02/06/2018","18:11","218CR0003165","MEDICAL - EMERGENCY","MEDICAL - EMERGENCY","1515 OREGON APT 808","",""
"02/06/2018","18:16","218CR0003166","MEDICAL - EMERGENCY","MEDICAL - EMERGENCY","4101 WESTERN BLVD","",""
"02/06/2018","18:28","218CR0003167","UNWANTED PERSON","UNWANTED PERSON","************","",""
"02/06/2018","19:06","218CR0003168","ALARM - BURGLARY","ALARM - BURGLARY","************","",""
"02/06/2018","19:31","218CR0003169","T/S","T/S","HARRISON AND C ST","",""
"02/06/2018","19:33","218CR0003171","ALL OTHER","ALL OTHER","205 W GRANITE # 306","",""
"02/06/2018","19:34","218CR0003170","T/S","T/S @ PARK AND JACKSON","PARK AND JACKSON","",""
"02/06/2018","19:36","218CR0003172","ALL OTHER","ALL OTHER","2234 GRAND AVE","",""
"02/06/2018","19:40","218CR0003173","T/S","T/S","TEXAS AVE AND MARCIA ST","",""
"02/06/2018","19:59","218CR0003174","BUSINESS CHECK","BUSINESS CHECK","1370 HARRISON","",""
"02/06/2018","20:02","218CR0003175","T/S","T/S @ FRONT AND NEVADA","FRONT AND NEVADA","",""
"02/06/2018","20:06","218CR0003176","JUVENILE MISC","JUVENILE MISC","************","",""
"02/06/2018","20:10","218CR0003177","ASSIST OTHER AGENCY","ASSIST OTHER AGENCY","225 N ALASKA ST","",""
"02/06/2018","20:11","218CR0003178","T/S","T/S","UTAH AND ALUMINUM","",""
"02/06/2018","20:33","218CR0003179","UNKNOWN PROBLEM","UNKNOWN PROBLEM","SCHWANNS/105 S PARKMONT","",""
"02/06/2018","20:35","218CR0003180","ATL","ATL","MEADOWLARK LN AND PAXSON AVE","",""
"02/06/2018","20:36","218CR0003181","UNKNOWN PROBLEM","UNKNOWN PROBLEM","PARK AND MAIN","",""
"02/06/2018","20:39","218CR0003182","ASSIST OTHER AGENCY","ASSIST OTHER AGENCY","901 S WASHINGTON #12","",""
"02/06/2018","22:19","218CR0003183","BUSINESS CHECK","BUSINESS CHECK","1400 HARRISON","",""
"02/06/2018","22:21","218CR0003184","T/S","T/S","FRONT ST AND MISSOURI ST","",""
"02/06/2018","22:36","218CR0003185","SUSPICIOUS ACTIVITY","SUSPICIOUS ACTIVITY","1000 E FRONT","",""
"02/06/2018","22:38","218CR0003186","SUSPICIOUS ACTIVITY","SUSPICIOUS ACTIVITY","1302 E SECOND ST","",""
"02/06/2018","22:41","218CR0003187","SUSPICIOUS ACTIVITY","SUSPICIOUS ACTIVITY","226 E BROADWAY","",""
"02/06/2018","22:55","218CR0003188","SUICIDE ATTEMPT/THREAT","SUICIDE ATTEMPT/THREAT","************","",""
"02/06/2018","23:10","218CR0003189","T/S","T/S @ HARRISON AND COBBAN","HARRISON AND COBBAN","",""
"02/06/2018","23:21","218CR0003190","SUSPICIOUS ACTIVITY","CRIMINAL CONTEMPT","1915 DEWEY BLVD","ARREST(s) MADE",""
"02/06/2018","23:34","218CR0003191","SUSPICIOUS ACTIVITY","SUSPICIOUS ACTIVITY","FRONT AND HARRISON","",""
"02/06/2018","23:37","218CR0003192","ALARM - MEDICAL","ALARM - MEDICAL","************","",""
"02/06/2018","23:51","218CR0003193","T/S","T/S","2ND AND IOWA","",""
"02/06/2018","23:55","218CR0003194","T/S","POSSESS DRUG PARAPHERNALIA","MONTANA AND CENTENNIAL","ARREST(s) MADE",""
"02/06/2018","23:59","218CR0003195","TRAFFIC HAZARD","TRAFFIC HAZARD","1960 HARRISON AVE","",""
"02/07/2018","00:01","218CR0003196","SUSPICIOUS ACTIVITY","SUSPICIOUS ACTIVITY","1400 BLK HARRISON","",""
"02/07/2018","00:29","218CR0003197","T/S","DRIVING W/OUT VALID D/L","1304 HARRISON","",""
"02/07/2018","00:56","218CR0003198","SUSPICIOUS ACTIVITY","SUSPICIOUS ACTIVITY","BUFFALO AND MAIN","",""
"02/07/2018","01:31","218CR0003199","SUSPICIOUS ACTIVITY","THEFT, ALL OTHERS","2305 CONTINENTAL","",""
"02/07/2018","01:53","218CR0003200","SUSPICIOUS ACTIVITY","SUSPICIOUS ACTIVITY","2620 ST ANN ST","",""
"02/07/2018","02:23","218CR0003201","T/S","NO LIABILITY INSURANCE IN EFF.","HARRISON AND MAJORS","",""
"02/07/2018","02:28","218CR0003202","T/S","OPERATING W/EXPIRED PLATES","GEORGE AND OREGON","",""
"02/07/2018","02:28","218CR0003203","T/S","T/S @ ","","",""
"02/07/2018","02:36","218CR0003204","DOMESTIC ABUSE","DOMESTIC ABUSE","************","",""
"02/07/2018","05:02","218CR0003205","MEDICAL - EMERGENCY","MEDICAL - EMERGENCY","15 E FREMONT ST","",""
"02/07/2018","05:13","218CR0003206","ALARM - BURGLARY","ALARM - BURGLARY","************","",""
"02/07/2018","05:40","218CR0003208","DISTURBANCE","DISTURBANCE","1911 PORTER","",""
"02/07/2018","05:41","218CR0003207","DISTURBANCE","CRIMINAL CONTEMPT","1911 PORTER","ARREST(s) MADE",""
"02/07/2018","05:57","218CR0003209","BURGLARY","BURGLARY","102 S ARIZONA ST","",""
"02/07/2018","06:10","218CR0003210","VANDALISM/CRIMINAL MISCHIEF","VANDALISM/CRIMINAL MISCHIEF","1957 GAYLORD","",""
"02/07/2018","06:21","218CR0003211","THEFT","THEFT","3901 HARRISON AVE","",""
"02/07/2018","06:31","218CR0003212","DISTURBANCE","DISTURBANCE","1200 BLK E SECOND","",""
"02/07/2018","06:47","218CR0003213","UNWANTED PERSON","UNWANTED PERSON","************","",""
"02/07/2018","06:47","218CR0003214","MEDICAL - EMERGENCY","MEDICAL - EMERGENCY","1900 THOMAS AVE","",""
 

BSB police report ending February 6, 2018

"02/05/2018","00:03","218CR0003001","T/S","DUI DRUGS OR ALCOHOL","FLORENCE AND OTTAWA","ARREST(s) MADE",""
"02/05/2018","00:33","218CR0003002","BUSINESS CHECK","BUSINESS CHECK","531 S MONTANA","",""
"02/05/2018","00:38","218CR0003003","ACCIDENT","ACCIDENT","60 E BROADWAY","",""
"02/05/2018","01:24","218CR0003004","ALARM - BURGLARY","ALARM - BURGLARY","************","",""
"02/05/2018","01:42","218CR0003005","ATL","ATL","PARK AND MAIN","",""
"02/05/2018","01:42","218CR0003007","UNWANTED PERSON","UNWANTED PERSON","************","",""
"02/05/2018","01:43","218CR0003006","T/S","AGGRAVATED DUI","TEXAS AND SILVERBOW BLVD","ARREST(s) MADE",""
"02/05/2018","02:15","218CR0003008","DISTURBANCE","PFMA - WEAPON","212 N CLARK","",""
"02/05/2018","02:26","218CR0003009","SUSPICIOUS ACTIVITY","CRIMINAL CONTEMPT","2909 SILVERBOW BLVD","ARREST(s) MADE",""
"02/05/2018","02:54","218CR0003010","THEFT","THEFT","225 N ALASKA ST","",""
"02/05/2018","04:07","218CR0003011","MEDICAL - EMERGENCY","MEDICAL - EMERGENCY","721 HOBSON #4","",""
"02/05/2018","04:22","218CR0003012","DISTURBANCE","DISTURBANCE","305 N WASHINGTON","",""
"02/05/2018","06:24","218CR0003013","SUSPICIOUS ACTIVITY","SUSPICIOUS ACTIVITY","1370 HARRISION AVE","",""
"02/05/2018","06:43","218CR0003014","SUSPICIOUS ACTIVITY","SUSPICIOUS ACTIVITY","100 BLK N MONTANA ST","",""
"02/05/2018","07:22","218CR0003015","THEFT","THEFT FROM MOTOR VEHICLE","2700 BLK SHERMAN","",""
"02/05/2018","07:23","218CR0003016","ACCIDENT-MHP","ACCIDENT-MHP","I15 MM 126 S BND","",""
"02/05/2018","07:53","218CR0003017","DETENTION BUSINESS","DETENTION BUSINESS","************","",""
"02/05/2018","08:01","218CR0003018","THEFT","THEFT BY EMBEZZLEMENT","3219 HARRISON AVE","",""
"02/05/2018","08:06","218CR0003019","ACCIDENT","ACCIDENT","1000 BLK S EXCELCIOR","",""
"02/05/2018","08:38","218CR0003020","THEFT","THEFT FROM MOTOR VEHICLE","3309 CARTER","",""
"02/05/2018","08:45","218CR0003021","HIT AND RUN","HIT AND RUN","PORPHYRY AND WASHINGTON","",""
"02/05/2018","08:55","218CR0003023","SUSPICIOUS ACTIVITY","SUSPICIOUS ACTIVITY","2100 CORNELL","",""
"02/05/2018","08:56","218CR0003022","ALL OTHER","ALL OTHER","119130 GERMAN GULCH ROAD","",""
"02/05/2018","09:16","218CR0003024","CIVIL PAPER SERVICE","CIVIL PAPER SERVICE","3025 EAGLE ST","",""
"02/05/2018","09:20","218CR0003025","MEDICAL - EMERGENCY","MEDICAL - EMERGENCY","9 S IDAHO","",""
"02/05/2018","09:30","218CR0003026","PARKING COMPLAINT","PARKING COMPLAINT","736 S DAKOTA","",""
"02/05/2018","09:49","218CR0003027","CIVIL PAPER SERVICE","CIVIL PAPER SERVICE","540 S COLORADO","",""
"02/05/2018","09:51","218CR0003028","VANDALISM/CRIMINAL MISCHIEF","CRIMINAL MISCHIEF","3707 GREEN LANE","",""
"02/05/2018","09:53","218CR0003029","CIVIL PAPER SERVICE","CIVIL PAPER SERVICE","502 W PARK #2","",""
"02/05/2018","09:58","218CR0003030","MEDICAL - EMERGENCY","MEDICAL - EMERGENCY","9 S MONTANA ST","",""
"02/05/2018","09:59","218CR0003031","CIVIL PAPER SERVICE","CIVIL PAPER SERVICE","809 TRAVONIA","",""
"02/05/2018","10:01","218CR0003032","CITIZEN AID","CITIZEN AID","800 BLK MAIN ST","",""
"02/05/2018","10:04","218CR0003033","ALARM - FIRE","ALARM - FIRE","3701 ELIZABETH WARREN","",""
"02/05/2018","10:29","218CR0003034","SUICIDE ATTEMPT/THREAT","SUICIDE ATTEMPT/THREAT","************","",""
"02/05/2018","10:30","218CR0003035","THEFT","THEFT","","",""
"02/05/2018","10:35","218CR0003036","THEFT","THEFT, ALL OTHERS","3535 S ARIZONA","",""
"02/05/2018","10:55","218CR0003037","MEDICAL - EMERGENCY","MEDICAL - EMERGENCY","911 N HENRY","",""
"02/05/2018","10:58","218CR0003040","WELFARE CHECK","WELFARE CHECK","303 N WASHINGTON","",""
"02/05/2018","10:59","218CR0003038","THEFT","THEFT FROM MOTOR VEHICLE","2914 YALE","",""
"02/05/2018","10:59","218CR0003039","THEFT","THEFT, SHOPLIFT","2711 HARRISON","",""
"02/05/2018","11:07","218CR0003041","ALL OTHER","ALL OTHER","CALEDONIA AND EXCELSIOR","",""
"02/05/2018","11:08","218CR0003042","MEDICAL - EMERGENCY","MEDICAL - EMERGENCY","3150 OTTAWA ST","",""
"02/05/2018","11:23","218CR0003043","JUVENILE MISC","POSSESS DRUG PARAPHERNALIA","401 S WYOMING ST","ARREST(s) MADE",""
"02/05/2018","11:44","218CR0003044","T/S","T/S @ DEWEY AND HARRISON","DEWEY AND HARRISON","",""
"02/05/2018","12:11","218CR0003045","ASSIST OTHER AGENCY","ASSIST OTHER AGENCY","I 90 MM 218 E BND","",""
"02/05/2018","12:13","218CR0003046","CIVIL PAPER SERVICE","CIVIL PAPER SERVICE","808 W SILVER","",""
"02/05/2018","12:14","218CR0003047","CIVIL PAPER SERVICE","CIVIL PAPER SERVICE","209 S CRYSTAL ST","",""
"02/05/2018","12:16","218CR0003048","THEFT","THEFT FROM MOTOR VEHICLE","501 S DAKOTA","",""
"02/05/2018","12:23","218CR0003049","CIVIL PAPER SERVICE","CIVIL PAPER SERVICE","910 EVANS #C5","",""
"02/05/2018","12:30","218CR0003050","CIVIL PAPER SERVICE","CIVIL PAPER SERVICE","4105 WESTERN","",""
"02/05/2018","12:34","218CR0003051","WELFARE CHECK","WELFARE CHECK","636 1/2 W PARK","",""
"02/05/2018","12:54","218CR0003052","ASSAULT","PFMA - MINOR INJ/PHYSICAL CONT","134 S MAIN","",""
"02/05/2018","12:57","218CR0003053","LED BUSINESS","LED BUSINESS","24 E COPPER","",""
"02/05/2018","13:07","218CR0003054","DRUGS","DRUGS","************","",""
"02/05/2018","13:53","218CR0003055","T/S","T/S @ UTAH AND FRONT","UTAH AND FRONT","",""
"02/05/2018","13:54","218CR0003056","ACCIDENT","ACCIDENT","ARIZONA ST AND PARK ST","",""
"02/05/2018","14:03","218CR0003057","SUSPICIOUS ACTIVITY","SUSPICIOUS ACTIVITY","400 BLK S ARIZONA","",""
"02/05/2018","14:09","218CR0003058","THEFT","THEFT","225 S JACKSON","",""
"02/05/2018","14:09","218CR0003059","WELFARE CHECK","WELFARE CHECK","50 W BROADWAY # 303","",""
"02/05/2018","14:50","218CR0003060","UNWANTED PERSON","THEFT, ALL OTHERS","200 S EXCELSIOR","",""
"02/05/2018","15:00","218CR0003061","RESTRAINING ORDER VIOLATION","RESTRAINING ORDER VIOLATION","************","",""
"02/05/2018","15:06","218CR0003062","ACCIDENT","ACCIDENT","3RD ST AND UTAH AVE","",""
"02/05/2018","15:08","218CR0003063","ALL OTHER","ALL OTHER","2084 HARRISON","",""
"02/05/2018","15:19","218CR0003065","ALL OTHER","ALL OTHER","630 W MERCURY","",""
"02/05/2018","15:19","218CR0003064","WELFARE CHECK","WELFARE CHECK","1706 HOBSON","",""
"02/05/2018","15:22","218CR0003066","MEDICAL - EMERGENCY","MEDICAL - EMERGENCY","5103 HARRISON AVE","",""
"02/05/2018","15:26","218CR0003067","ALARM - MEDICAL","ALARM - MEDICAL","************","",""
"02/05/2018","15:29","218CR0003068","UNWANTED PERSON","UNWANTED PERSON","************","",""
"02/05/2018","15:33","218CR0003069","UNWANTED PERSON","UNWANTED PERSON","************","",""
"02/05/2018","15:37","218CR0003070","THEFT","BURGLARY, NON-RESIDENCE","1421 W GOLD","",""
"02/05/2018","15:41","218CR0003072","THEFT","THEFT FROM MOTOR VEHICLE","1201 ANTIMONY ST","",""
"02/05/2018","15:41","218CR0003071","T/S","T/S","SAMPSON AND BUSCH","",""
"02/05/2018","15:44","218CR0003073","MISSING PERSON","MISSING PERSON","************","",""
"02/05/2018","16:00","218CR0003074","T/S","T/S @ PARK AND MONTANA","PARK AND MONTANA","",""
"02/05/2018","16:10","218CR0003075","T/S","T/S @ S MONTANA AND JOSETTE","S MONTANA AND JOSETTE","",""
"02/05/2018","16:13","218CR0003076","T/S","T/S","MERCURY AND EXCELSIOR","",""
"02/05/2018","16:27","218CR0003077","T/S","OPERATING WITHOUT CURRENT REGI","STUART AND FARRELL","",""
"02/05/2018","16:29","218CR0003078","UNKNOWN PROBLEM","UNKNOWN PROBLEM","323 S MONTANA NO 1","",""
"02/05/2018","16:45","218CR0003079","ALL OTHER","ALL OTHER","225 N ALASKA","",""
"02/05/2018","16:56","218CR0003080","ASSIST OTHER AGENCY","ASSIST OTHER AGENCY","1053 S COLORADO","",""
"02/05/2018","17:14","218CR0003081","THEFT","DECEPTIVE PRACT - CREDIT CARD","2031 UTAH","",""
"02/05/2018","17:24","218CR0003082","DISTURBANCE-NOISE","DISTURBANCE-NOISE","2102 ELM ST","",""
"02/05/2018","17:42","218CR0003083","MEDICAL - EMERGENCY","MEDICAL - EMERGENCY","MELROSE","",""
"02/05/2018","17:46","218CR0003084","WELFARE CHECK","WELFARE CHECK","721 COLORADO","",""
"02/05/2018","17:57","218CR0003085","ALARM - BURGLARY","ALARM - BURGLARY","************","",""
"02/05/2018","17:59","218CR0003086","UNWANTED PERSON","UNWANTED PERSON","************","",""
"02/05/2018","18:16","218CR0003087","ASSIST OTHER AGENCY","ASSIST OTHER AGENCY","640 W BROADWAY","",""
"02/05/2018","19:18","218CR0003088","MEDICAL - EMERGENCY","MEDICAL - EMERGENCY","525 E MERCURY","",""
"02/05/2018","19:49","218CR0003089","T/S","T/S","CENTENIAL AND MONTANA","",""
"02/05/2018","19:51","218CR0003090","MEDICAL - EMERGENCY","MEDICAL - EMERGENCY","300 MOUNT HIGHLAND DR","",""
"02/05/2018","20:04","218CR0003091","WELFARE CHECK","WELFARE CHECK","1004 HORNET","",""
"02/05/2018","20:05","218CR0003092","UNWANTED PERSON","UNWANTED PERSON","************","",""
"02/05/2018","20:06","218CR0003093","SUSPICIOUS ACTIVITY","SUSPICIOUS ACTIVITY","ARIZONA AND SECOND","",""
"02/05/2018","20:14","218CR0003094","MEDICAL - EMERGENCY","MEDICAL - EMERGENCY","2420 WASHOE","",""
"02/05/2018","20:23","218CR0003095","THEFT","THEFT","2613 CONTINENTAL DR","",""
"02/05/2018","20:29","218CR0003096","T/S","T/S @ TEXAS AND FARRELL","TEXAS AND FARRELL","",""
"02/05/2018","20:36","218CR0003097","SUSPICIOUS ACTIVITY","SUSPICIOUS ACTIVITY","3040 PHILLIPS ST","",""
"02/05/2018","20:39","218CR0003098","MEDICAL - EMERGENCY","MEDICAL - EMERGENCY","3541 HARRISON AVE","",""
"02/05/2018","20:53","218CR0003099","ALARM-DURESS","ALARM-DURESS","************","",""
"02/05/2018","21:07","218CR0003100","UNKNOWN PROBLEM","UNKNOWN PROBLEM","806 PLACER ST","",""
"02/05/2018","21:40","218CR0003101","JUVENILE RUNAWAY","UNGOVERNABLE JUVENILE","1530 PHILLIPS AVE","ARREST(s) MADE",""
"02/05/2018","21:45","218CR0003102","FIRE - VEHICLE","FIRE - VEHICLE","100 BLK E ALUMINUM ST","",""
"02/05/2018","22:02","218CR0003103","UNWANTED PERSON","CRIMINAL TRESPASS TO PROPERTY","103 SILVERBOW HOMES","ARREST(s) MADE",""
"02/05/2018","22:07","218CR0003104","DISTURBANCE","DISTURBANCE","501 S MONTANA","",""
"02/05/2018","22:20","218CR0003105","SUSPICIOUS ACTIVITY","DISORDERLY CONDUCT","MONTANA AND IRON","ARREST(s) MADE",""
"02/05/2018","22:28","218CR0003106","JUVENILE MISC","JUVENILE MISC","************","",""
"02/05/2018","22:33","218CR0003107","CITIZEN AID","CITIZEN AID","HOLY CROSS CEMETERY","",""
"02/05/2018","22:59","218CR0003108","SUSPICIOUS ACTIVITY","SUSPICIOUS ACTIVITY","310 W FRONT ST","",""
"02/05/2018","23:09","218CR0003109","ALL OTHER","ALL OTHER","2100 CORNELL QUALITY INN","",""
"02/05/2018","23:37","218CR0003110","ASSIST OTHER AGENCY","ASSIST OTHER AGENCY","FRONT AND MONTANA","",""
"02/05/2018","23:43","218CR0003111","ALARM - BURGLARY","ALARM - BURGLARY","************","",""
"02/06/2018","00:31","218CR0003112","UNKNOWN PROBLEM","UNKNOWN PROBLEM","1021 GAYLORD","",""
"02/06/2018","00:55","218CR0003113","SUSPICIOUS ACTIVITY","SUSPICIOUS ACTIVITY","UTAH AVE AND ALUMINUM ST","",""
"02/06/2018","01:26","218CR0003114","PROWLER","PROWLER","1221 FARRELL","",""
"02/06/2018","01:48","218CR0003115","SUSPICIOUS ACTIVITY","SUSPICIOUS ACTIVITY","HAMBLIN HEIGHTS","",""
"02/06/2018","03:21","218CR0003116","SUSPICIOUS ACTIVITY","SUSPICIOUS ACTIVITY","705 E IRON SUMMIT VALLEY AUTO","",""
"02/06/2018","03:25","218CR0003117","SUSPICIOUS ACTIVITY","SUSPICIOUS ACTIVITY","2207 SILVERBOW BLVD","",""
"02/06/2018","04:43","218CR0003118","DISTURBANCE-NOISE","DISTURBANCE-NOISE","3519 GAYLORD","",""
"02/06/2018","05:27","218CR0003119","TRAFFIC","TRAFFIC","MONTANA AND TECUMSEH","",""
"02/06/2018","05:36","218CR0003120","MEDICAL - EMERGENCY","MEDICAL - EMERGENCY","1324 HARRISON","",""
"02/06/2018","05:42","218CR0003121","ROBBERY","ROBBERY","1507 CALIFORNIA","",""
"02/06/2018","06:15","218CR0003122","MEDICAL - EMERGENCY","MEDICAL - EMERGENCY","1803 PHILLIPS AVE","",""
"02/06/2018","06:25","218CR0003123","DISTURBANCE","DISTURBANCE","1324 HARRISON","",""
"02/06/2018","07:27","218CR0003124","UNWANTED PERSON","UNWANTED PERSON","************","",""
 

Subcategories

Saturday the 23rd. Affiliate Marketing.
Copyright 2012

©